Погода в Оструде

Польша     53°42′09″N   19°57′46″E
темп.,
°C
ветер,
м/с
пор.,
м/с
влажн.,
%
обл.,
%
осадки,
мм/ч
давл.,
гПа
погр.,
м
1 марта, пн
пн101:00+1сз359626 0.0 1033124
04:000зсз229713 0.0 103233
07:00+1зюз22947 0.0 103333
10:00+5зюз34800 0.0 1034262
13:00+8зюз46720 0.0 1033426
16:00+6зюз48820 0.0 1032416
19:00+4зюз511910 0.0 1032301
22:00+3з410930 0.0 1031307
2 марта, вт
вт201:00+2з49930 0.0 1031262
04:00+1з411910 0.0 1030287
07:00+1з411900 0.0 1030336
10:00+6зсз510700 0.0 1030577
13:00+8сз58640 0.0 1031779
16:00+7сз477610 0.0 1030581
19:00+2ссз27955 0.0 1031258
22:00+1с12965 0.0 103224
3 марта, ср
ср301:000с11902 0.0 103321
04:000ююз008360 0.0 103122
07:00+1ю117745 0.0 103122
10:00+5ююз346319 0.0 1029357
13:00+8юз466727 0.0 1027560
16:00+7юз37660 0.0 1024454
19:00+3юз37800 0.0 1022150
22:00+3юз410870 0.0 1018225
4 марта, чт
чт401:00+3зюз49920 0.0 1016256
04:00+2зюз411958 0.0 1013412
07:00+3з5109448 0.0 1012566
10:00+4з4787100 0.0 1011695
13:00+4зсз5778100 0.1 1010846
16:00+2зсз4889100 0.1 1009643
19:00−1ссв5996100 0.5 1010506
22:00−1ссв51087100 0.5 1012716
5 марта, пт
пт501:00−2с378998 0.6 1013478
04:00−3ссв377614 0.0 1014273
07:00−3сз24667 0.0 1016169
10:00+1зсз58560 0.0 10171317
13:00+2ссз575147 0.5 10181627
16:00+1ссз58480 0.0 10191605
19:00−2сз286719 0.0 1021418
22:00−2зсз257757 0.1 1022199